Weather History for Aspen, CO

Change the Weather History Date:

Monday, May 20, 2013

  Actual Average Record
Temperature  
Mean Temperature 41 °F 50 °F  
Max Temperature 49 °F 64 °F 81 °F (2005)
Min Temperature 32 °F 35 °F 30 °F (1983)
Degree Days  
Heating Degree Days 24 15  
Month to date heating degree days 382 363  
Since 1 July heating degree days 8293 8493  
Cooling Degree Days 0 0  
Month to date cooling degree days 0 0  
Year to date cooling degree days 0 0  
Moisture  
Dew Point 35 °F    
Average Humidity 74    
Maximum Humidity 92    
Minimum Humidity 56    
Precipitation  
Precipitation 0.09 in 0.04 in 0.25 in (1983)
Month to date precipitation 1.88 1.13  
Year to date precipitation 6.49 6.53  
Sea Level Pressure  
Sea Level Pressure 29.97 in    
Wind  
Wind Speed 5 mph (WNW)    
Max Wind Speed 22 mph    
Max Gust Speed 28 mph    
Visibility 9 miles    
Events Rain    
T = Trace of Precipitation, MM = Missing Value Source: NWS Daily Summary

Daily Weather History Graph

Daily Weather History Graph

Search for Another Location

Airport:

Trip Planner

Search our weather history database for the weather conditions in past years. The results will help you decide how hot, cold, wet, or windy it might be!

Date:

Astronomy

May. 20, 2013 Rise Set
Actual Time 5:49 AM MDT 8:18 PM MDT
Civil Twilight 5:19 AM MDT 8:49 PM MDT
Nautical Twilight 4:41 AM MDT 9:27 PM MDT
Astronomical Twilight 3:58 AM MDT 10:10 PM MDT
Moon 3:31 PM MDT (5/20) 2:44 AM MDT (5/20)
Length of Visible Light 15h 30m
Length of Day
14h 28m
Waxing Gibbous, 75% of the Moon is Illuminated
May 20
Waxing Gibbous
May 24
Full
May 31
Last Quarter
Jun 8
New
Jun 16
First Quarter

Hourly Weather History & Observations

Time (MDT) Temp. Windchill Dew Point Humidity Pressure Visibility Wind Dir Wind Speed Gust Speed Precip Events Conditions
12:00 AM 37.4 °F - 33.8 °F 87% 30.05 in 5.0 mi Calm Calm - 0.01 in Rain Light Rain
12:26 AM 37.4 °F 32.8 °F 33.8 °F 87% 30.06 in 10.0 mi SW 5.8 mph - 0.01 in   Overcast
12:53 AM 37.0 °F 34.5 °F 33.1 °F 86% 29.90 in 10.0 mi SSW 3.5 mph - 0.01 in   Mostly Cloudy
2:00 AM 37.4 °F 33.8 °F 33.8 °F 87% 30.04 in 10.0 mi SSW 4.6 mph - N/A   Overcast
2:29 AM 37.4 °F - 33.8 °F 87% 30.04 in 10.0 mi Calm Calm - N/A   Overcast
2:53 AM 37.0 °F - 34.0 °F 89% 29.90 in 10.0 mi Calm Calm - N/A   Overcast
3:36 AM 37.4 °F - 33.8 °F 87% 30.03 in 10.0 mi Calm Calm - N/A   Overcast
3:53 AM 37.0 °F 34.5 °F 34.0 °F 89% 29.90 in 10.0 mi North 3.5 mph - N/A   Overcast
4:11 AM 37.4 °F - 33.8 °F 87% 30.04 in 10.0 mi Calm Calm - N/A   Overcast
4:53 AM 37.0 °F 34.5 °F 34.0 °F 89% 29.89 in 10.0 mi North 3.5 mph - N/A   Overcast
5:53 AM 37.9 °F - 35.1 °F 89% 29.89 in 10.0 mi Calm Calm - N/A   Overcast
6:53 AM 37.9 °F - 35.1 °F 89% 29.89 in 10.0 mi Calm Calm - 0.00 in   Overcast
7:53 AM 39.0 °F - 35.1 °F 86% 29.92 in 10.0 mi Calm Calm - 0.00 in   Overcast
8:53 AM 42.1 °F - 34.0 °F 73% 29.92 in 10.0 mi Calm Calm - 0.01 in   Mostly Cloudy
9:53 AM 44.1 °F 39.0 °F 33.1 °F 65% 29.90 in 10.0 mi NW 9.2 mph 19.6 mph N/A   Mostly Cloudy
10:53 AM 46.0 °F 41.4 °F 33.1 °F 61% 29.89 in 10.0 mi NW 9.2 mph 16.1 mph N/A   Mostly Cloudy
11:53 AM 46.9 °F - 34.0 °F 61% 29.88 in 10.0 mi NNW 10.4 mph 20.7 mph N/A   Mostly Cloudy
12:53 PM 46.0 °F 40.2 °F 37.0 °F 71% 29.90 in 10.0 mi NNW 12.7 mph 21.9 mph 0.00 in   Mostly Cloudy
1:53 PM 48.9 °F - 34.0 °F 56% 29.88 in 10.0 mi NNW 12.7 mph 20.7 mph N/A   Mostly Cloudy
2:34 PM 42.8 °F 37.5 °F 35.6 °F 76% 30.10 in 5.0 mi NNE 9.2 mph 21.9 mph 0.00 in Rain Light Rain
2:53 PM 41.0 °F 35.8 °F 36.0 °F 82% 29.98 in 6.0 mi NNW 8.1 mph - 0.02 in Rain Light Rain
3:53 PM 44.1 °F 41.5 °F 37.0 °F 76% 29.94 in 7.0 mi ESE 4.6 mph - 0.03 in Rain Light Rain
4:14 PM 44.6 °F 43.1 °F 37.4 °F 76% 30.10 in 8.0 mi East 3.5 mph - 0.01 in Rain Light Rain
4:24 PM 42.8 °F 38.0 °F 35.6 °F 76% 30.11 in 8.0 mi NE 8.1 mph 17.3 mph 0.01 in Rain Light Rain
4:53 PM 41.0 °F 38.0 °F 37.0 °F 86% 29.98 in 8.0 mi SSW 4.6 mph - 0.02 in Rain Light Rain
5:53 PM 44.1 °F 40.8 °F 37.9 °F 79% 29.96 in 10.0 mi ESE 5.8 mph - 0.01 in   Mostly Cloudy
6:53 PM 45.0 °F - 37.0 °F 74% 29.94 in 10.0 mi Calm Calm - N/A   Mostly Cloudy
8:53 PM 39.0 °F 35.7 °F 36.0 °F 89% 29.97 in 10.0 mi SSW 4.6 mph - N/A   Partly Cloudy
9:53 PM 37.0 °F 34.5 °F 34.0 °F 89% 30.01 in 10.0 mi SSW 3.5 mph - N/A   Mostly Cloudy
10:53 PM 36.0 °F 32.1 °F 33.1 °F 89% 30.02 in 10.0 mi SSW 4.6 mph - N/A   Clear
11:53 PM 34.0 °F 31.0 °F 32.0 °F 92% 30.03 in 10.0 mi SSW 3.5 mph - N/A   Partly Cloudy